Regional Weather Roundup
Issued by NWS Green Bay, WI

Home | Current Version | Previous Version | Graphics & Text | Print | Product List | Glossary Off
Versions: 1 2 3 4 5 6 7 8 9 10 11 12 13 14 15 16 17 18 19 20 21 22 23 24 25 26 27 28 29 30 31 32 33 34 35 36 37 38 39 40 41 42 43 44 45 46 47 48 49 50

000
ASUS43 KGRB 152010
RWRGRB

NORTH-CENTRAL AND NORTHEAST WISCONSIN REGIONAL WEATHER ROUNDUP
NATIONAL WEATHER SERVICE GREEN BAY WI
300 PM CDT MON SEP 15 2014

WIZ005-009-010>012-018-019-152100-
NORTH CENTRAL WISCONSIN

CITY           SKY/WX    TMP DP  RH WIND       PRES   REMARKS
IRONWOOD       PTSUNNY   54  37  54 NW12G18   30.13S
MANITOWISH WTR PTSUNNY   56  35  44 W15       30.13S
ARBOR VITAE    PTSUNNY   57  37  48 NW8       30.13S
EAGLE RIVER    PTSUNNY   57  37  47 N12G20    30.11S
LAND O LAKES   MOSUNNY   57  40  52 NW13      30.12F
RHINELANDER    PTSUNNY   55  41  59 NW6       30.13S
PHILLIPS       MOSUNNY   57  36  44 NW6       30.13F
ANTIGO         PTSUNNY   56  41  56 NW8       30.11S
TOMAHAWK       PTSUNNY   58  39  48 NW10G17   30.13S
MERRILL        CLOUDY    59  44  57 N9        30.12S
$$

WIZ013-073-152100-
NORTHEAST WISCONSIN

CITY           SKY/WX    TMP DP  RH WIND       PRES   REMARKS
IRON MOUNTAIN  PTSUNNY   57  41  55 NW9G20    30.08S
MARINETTE      CLOUDY    61  43  51 W7        30.08S
OCONTO         CLOUDY    59  47  62 W9        30.09F
$$

WIZ017-030-035>037-045-152100-
CENTRAL WISCONSIN

CITY           SKY/WX    TMP DP  RH WIND       PRES   REMARKS
MEDFORD        CLOUDY    56  40  56 NW12      30.14S
WAUSAU         PTSUNNY   60  39  45 NW8       30.10F
MOSINEE        PTSUNNY   61  43  51 NW6       30.13F
MARSHFIELD     PTSUNNY   59  41  51 NW10      30.13F
WISC RAPIDS    LGT RAIN  58  51  78 SW9       30.14F
STEVENS POINT  PTSUNNY   59  40  49 W8        30.12F
WAUPACA        CLOUDY    58  51  79 W8        30.13S
SHAWANO        PTSUNNY   62  45  54 W5        30.10F
CLINTONVILLE   PTSUNNY   61  45  55 NW9       30.10F
$$

WIZ038-039-048-051-152100-
FOX VALLEY

CITY           SKY/WX    TMP DP  RH WIND       PRES   REMARKS
NWS GREEN BAY  CLOUDY    58  49  72 SW8       30.11F
APPLETON       PTSUNNY   54  46  76 W8        30.13S
OSHKOSH        LGT RAIN  55  51  86 W3        30.12F
FOND DU LAC    LGT RAIN  53  50  89 W5        30.13F
$$

WIZ022-050-052-152100-
EAST CENTRAL WISCONSIN

CITY           SKY/WX    TMP DP  RH WIND       PRES   REMARKS
STURGEON BAY   CLOUDY    57  46  67 W7        30.10F
MANITOWOC      LGT RAIN  55  51  86 W6        30.11F
SHEBOYGAN      LGT RAIN  55  51  86 NW3       30.12S
$$

LMZ563-521-522-541>543-152100-
LAKESHORE

STATION/POSITION TIME  TEMP    WIND        PRES    VSBY  WAVE
                       AIR SEA DIR/SP/G                  HT/PER
                 (UTC) (F)     (DEG/KT/KT) (MB)    (MI)  (FT/S)
SHEBOYGAN LKSHOR 2000   53 48   CALM  /  5 1020.3F
KEWAUNEE LKSHORE 2000   56     260/  7/  8 1018.3F
NORTHPORT PIER   2000   57     150/  7/ 10 1018.6S
N MID LAKE BUOY  2000   56 60  240/  8/  8 1019.0F         1/ 5
S GREEN BAY BUOY 2000   58     VRB  6/  8  1020.0F
CHAMBERS ISLAND  2000   58     170/  3/  8 1019.0S
MENOMINEE LKSHOR 2000   58     190/  6/  9 1019.2F
$$



USA.gov is the U.S. government's official web portal to all federal, state and local government web resources and services.